星链-5551 (STARLINK-5551 )

导读 | 星芒AI

STARLINK-5551 是 SpaceX Starlink 项目中的一颗低轨通信卫星,属于第二代 Starlink 卫星(Gen2)。它运行在约 550 公里的轨道高度,旨在为全球用户提供高速、低延迟的互联网服务。该卫星采用先进推进系统,具备自主变轨和避障能力,提高了运行安全性和任务灵活性。STARLINK-5551 的部署有助于扩展 Starlink 网络覆盖范围,特别是在偏远和网络基础设施薄弱的地区,推动全球互联网接入的普及。

基本信息
目录编号:
56359
目录名称:
STARLINK-5551
国际标识:
2023-058AU
轨道中心:
EARTH
卫星名称:
星链-5551
卫星全名:
星链-5551 (STARLINK-5551 )
卫星状态:
在轨 (已飞行922 天)
发射日期:
2023-04-27 UTC
国别 :
美国 (US)
星等 :
--
轨道信息
数据来源 国际轨道数据
星历时间: 2025-11-04T13:52:43+0800
10小时前
查看轨道信息
半长轴: 6941.142km
偏心率: 0.0001151
轨道倾角: 97.602°
近地点辐角 148.607°
升交点赤经 307.456°
平近点角 211.522°
近地点: 562.208km
远地点: 563.806km
周期: 95.919分钟
每日圈数: 15.012617
详细信息
固有亮度:
5
最大亮度:
2.5
卫星平台:
Starlink v1.5
覆盖范围:
全球
运营商:
太空探索技术公司
运营商所在国:
美国
制造商(研发单位):
太空探索技术公司
制造商所在国:
美国
使用方式:
暂无
卫星简介
星链(Starlink)计划是由太空探索技术公司(SpaceX)提出的一个巨型低轨卫星互联网星座项目,计划在2019年至2024年间在太空搭建由约1.2万颗卫星组成的“星链”网络,其中1584颗将部署在地球上空550千米处的近地轨道,并从2020年开始工作。该卫星仍在工作。
2D轨道图
3D轨道图
轨道高度分析图
轨道倾角分析图
轨道综合分析图
查看轨道综合分析图